Location: The Saddle
(36.8333°N, 80.3417°W)
Time: 16:49:57
(UTC-05:00)

A-11 Canister half - Pass Details

Date: 11 December 2023
Orbit: 1526 x 1682 km, 47.3° (Epoch: 01 March)

Event Time Altitude Azimuth Distance (km) Brightness Sun altitude
Rises 01:30:45 0° 299° (WNW) 4,900 - -68.5°
Reaches altitude 10° 01:34:14 10° 291° (WNW) 3,892 - -67.9°
Maximum altitude 01:42:56 36° 230° (SW) 2,350 - -66.4°
Drops below altitude 10° 01:51:22 10° 168° (SSE) 3,770 - -64.9°
Sets 01:54:44 0° 160° (SSE) 4,730 - -64.3°
